TimePDT,TemperatureF,Dew PointF,Humidity,Sea Level PressureIn,VisibilityMPH,Wind Direction,Wind SpeedMPH,Gust SpeedMPH,PrecipitationIn,Events,Conditions,WindDirDegrees,DateUTC
12:08 AM,48.2,46.4,93,29.72,2.5,Calm,Calm,-,N/A,,Overcast,0,2013-09-21 07:08:00
12:13 AM,48.2,46.4,93,29.72,1.2,Calm,Calm,-,N/A,,Overcast,0,2013-09-21 07:13:00
12:26 AM,48.2,46.4,93,29.72,1.2,West,3.5,-,N/A,,Overcast,260,2013-09-21 07:26:00
12:35 AM,48.2,46.4,93,29.71,0.5,Calm,Calm,-,N/A,Fog,Fog,0,2013-09-21 07:35:00
12:46 AM,48.2,46.4,93,29.72,4.0,Calm,Calm,-,N/A,,Overcast,0,2013-09-21 07:46:00
12:56 AM,48.0,46.0,93,29.67,10.0,Calm,Calm,-,N/A,,Overcast,0,2013-09-21 07:56:00
1:08 AM,48.2,46.4,93,29.72,1.2,Variable,3.5,-,N/A,,Overcast,0,2013-09-21 08:08:00
1:18 AM,48.2,44.6,87,29.72,3.0,Variable,3.5,-,N/A,,Overcast,0,2013-09-21 08:18:00
1:30 AM,48.2,44.6,87,29.71,10.0,Variable,3.5,-,N/A,,Overcast,0,2013-09-21 08:30:00
1:56 AM,46.9,45.0,93,29.66,5.0,Variable,4.6,-,N/A,,Overcast,0,2013-09-21 08:56:00
1:59 AM,46.4,44.6,93,29.70,1.5,Variable,4.6,-,N/A,,Overcast,0,2013-09-21 08:59:00
2:02 AM,46.4,44.6,93,29.70,0.8,Variable,4.6,-,N/A,,Overcast,0,2013-09-21 09:02:00
2:10 AM,46.4,44.6,93,29.70,0.5,WSW,8.1,-,N/A,Fog,Fog,240,2013-09-21 09:10:00
2:18 AM,46.4,44.6,93,29.71,0.2,Variable,5.8,-,N/A,Fog,Fog,0,2013-09-21 09:18:00
2:32 AM,46.4,44.6,93,29.70,0.5,Variable,5.8,-,N/A,Fog,Fog,0,2013-09-21 09:32:00
2:56 AM,46.9,45.0,93,29.65,0.8,Variable,3.5,-,N/A,,Mist,0,2013-09-21 09:56:00
3:10 AM,46.4,44.6,93,29.70,0.2,Variable,3.5,-,N/A,Fog,Fog,0,2013-09-21 10:10:00
3:21 AM,46.4,44.6,93,29.71,0.5,North,-9999.0,-,N/A,Fog,Fog,0,2013-09-21 10:21:00
3:42 AM,46.4,44.6,93,29.72,0.2,Variable,4.6,-,N/A,Fog,Fog,0,2013-09-21 10:42:00
3:56 AM,46.9,45.0,93,29.67,0.2,Calm,Calm,-,0.00,Fog-Rain,Light Rain,0,2013-09-21 10:56:00
4:56 AM,46.0,44.1,93,29.66,0.8,Variable,6.9,-,0.02,Rain,Light Rain,0,2013-09-21 11:56:00
5:00 AM,46.4,42.8,87,29.70,1.8,West,8.1,-,0.00,,Overcast,270,2013-09-21 12:00:00
5:07 AM,46.4,42.8,87,29.70,2.0,Variable,5.8,-,0.00,,Overcast,0,2013-09-21 12:07:00
5:14 AM,46.4,42.8,87,29.70,1.2,Variable,5.8,-,0.00,,Overcast,0,2013-09-21 12:14:00
6:01 AM,44.6,42.8,93,29.70,0.8,Variable,3.5,-,N/A,,Mist,0,2013-09-21 13:01:00
6:21 AM,46.4,44.6,93,29.70,0.2,North,-9999.0,-,N/A,Fog,Fog,0,2013-09-21 13:21:00
7:18 AM,46.4,42.8,87,29.71,0.5,West,8.1,-,0.02,Fog,Fog,270,2013-09-21 14:18:00
7:45 AM,44.6,42.8,93,29.72,2.0,Variable,4.6,-,0.03,,Overcast,0,2013-09-21 14:45:00
7:58 AM,44.6,44.6,100,29.72,1.8,Variable,3.5,-,N/A,,Overcast,0,2013-09-21 14:58:00
8:10 AM,46.4,44.6,93,29.72,0.2,West,4.6,-,N/A,Fog,Fog,280,2013-09-21 15:10:00
8:36 AM,46.4,44.6,93,29.73,0.5,Variable,4.6,-,N/A,Fog,Fog,0,2013-09-21 15:36:00
8:56 AM,46.0,44.1,93,29.71,0.2,Variable,4.6,-,N/A,Fog,Fog,0,2013-09-21 15:56:00
9:06 AM,46.4,44.6,93,29.73,0.5,West,5.8,-,N/A,Fog,Fog,280,2013-09-21 16:06:00
9:11 AM,46.4,44.6,93,29.73,2.0,Variable,4.6,-,N/A,,Overcast,0,2013-09-21 16:11:00
9:22 AM,46.4,44.6,93,29.73,2.5,Variable,3.5,-,N/A,,Overcast,0,2013-09-21 16:22:00
9:29 AM,46.4,44.6,93,29.73,4.0,Variable,4.6,-,N/A,,Overcast,0,2013-09-21 16:29:00
9:38 AM,46.4,44.6,93,29.74,2.5,Variable,3.5,-,N/A,,Overcast,0,2013-09-21 16:38:00
9:44 AM,46.4,44.6,93,29.74,1.8,Variable,3.5,-,N/A,,Overcast,0,2013-09-21 16:44:00
9:49 AM,46.4,44.6,93,29.74,0.8,Variable,3.5,-,N/A,,Overcast,0,2013-09-21 16:49:00
9:56 AM,46.9,45.0,93,29.73,0.8,Calm,Calm,-,N/A,,Overcast,0,2013-09-21 16:56:00
10:05 AM,46.4,44.6,93,29.75,9.0,Variable,3.5,-,N/A,,Overcast,0,2013-09-21 17:05:00
10:56 AM,46.0,44.1,93,29.74,10.0,Variable,3.5,-,N/A,,Overcast,0,2013-09-21 17:56:00
11:11 AM,46.4,44.6,93,29.76,10.0,Calm,Calm,-,N/A,,Overcast,0,2013-09-21 18:11:00
11:21 AM,46.4,44.6,93,29.76,10.0,Variable,3.5,-,N/A,,Overcast,0,2013-09-21 18:21:00
11:56 AM,48.9,45.0,86,29.74,9.0,Variable,3.5,-,N/A,,Overcast,0,2013-09-21 18:56:00
12:10 PM,46.4,44.6,93,29.76,4.0,Variable,3.5,-,0.01,Rain,Light Rain,0,2013-09-21 19:10:00
12:44 PM,50.0,44.6,82,29.76,10.0,Variable,6.9,-,0.01,,Overcast,0,2013-09-21 19:44:00
12:56 PM,51.1,44.1,77,29.79,10.0,Variable,3.5,-,0.01,,Mostly Cloudy,0,2013-09-21 19:56:00
1:56 PM,51.1,44.1,77,29.73,10.0,Variable,3.5,-,N/A,,Overcast,0,2013-09-21 20:56:00
2:52 PM,51.8,42.8,71,29.74,10.0,Variable,4.6,-,N/A,,Scattered Clouds,0,2013-09-21 21:52:00
2:56 PM,53.1,43.0,69,29.77,10.0,Variable,5.8,-,N/A,,Mostly Cloudy,0,2013-09-21 21:56:00
3:56 PM,51.1,44.1,77,29.73,10.0,Variable,4.6,-,N/A,,Mostly Cloudy,0,2013-09-21 22:56:00
10:33 PM,44.6,42.8,93,29.75,0.2,Variable,5.8,-,N/A,Fog,Fog,0,2013-09-22 05:33:00
10:56 PM,44.6,42.8,93,29.75,0.2,Variable,4.6,-,N/A,Fog,Fog,0,2013-09-22 05:56:00
11:45 PM,44.6,42.8,93,29.75,0.2,Variable,4.6,-,N/A,Fog,Fog,0,2013-09-22 06:45:00
11:56 PM,45.0,43.0,93,29.74,0.2,Variable,3.5,-,N/A,Fog,Fog,0,2013-09-22 06:56:00